Flag for U.S.A. Weather past 2 weeks in Jefferson City, Missouri, U.S.A.

Now
3 °F

Sunny.


Feels Like: 3 °F
Forecast: 5 / 20 °F
Wind: No wind

Location: Jefferson City Memorial Airport

Current Time: Feb 27, 2015 at 8:09:06 AM

Latest Report: Feb 27, 2015 at 6:53 AM


Visibility: 10 mi

Pressure: 30.67 "Hg

Humidity: 76%

Dew point: -3 °F

Location of Jefferson CityLocation

Historic Weather in Jefferson City — Graph

°F

Jefferson City temperature yesterday

Maximum temperature yesterday: 36 °F (at 12:53 AM)
Minimum temperature yesterday: 10 °F (at 11:53 PM)
Average temperature yesterday: 20 °F

Past Weeks' High & Low Weather Summary

 TemperatureHumidityPressure
High49 °F (Feb 25, 3:53 PM)96% (Feb 20, 11:02 PM)30.79 "Hg (Feb 20, 11:02 PM)
Low1 °F (Feb 19, 4:53 AM)27% (Feb 23, 3:53 PM)29.76 "Hg (Feb 25, 2:53 PM)
Average22 °F60%30.25 "Hg
* Reported Feb 12 6:53 AM — Feb 27 6:53 AM, Jefferson City, Weather by CustomWeather, © 2015

Note: Actual official high and low records may vary slightly from our data, if they occured in-between our weather recording intervals... More about our weather records

Advertising

Jefferson City weather history for previous 24 hours

 ConditionsComfort  
Time TempWeatherWind HumidityBarometerVisibility
6:53 AM
Fri, Feb 27
3 °FSunny.No wind76%30.67 "Hg10 mi
5:53 AM4 °FClear.No wind69%30.64 "Hg10 mi
4:53 AM4 °FClear.No wind66%30.63 "Hg10 mi
3:53 AM5 °FClear.7 mph66%30.61 "Hg10 mi
2:53 AM6 °FClear.9 mph63%30.60 "Hg10 mi
1:53 AM7 °FClear.8 mph60%30.60 "Hg10 mi
12:53 AM9 °FClear.10 mph58%30.59 "Hg10 mi
11:53 PM
Thu, Feb 26
10 °FClear.7 mph58%30.58 "Hg10 mi
10:53 PM11 °FClear.8 mph59%30.57 "Hg10 mi
9:53 PM13 °FClear.7 mph56%30.56 "Hg10 mi
8:53 PM14 °FClear.7 mph53%30.53 "Hg10 mi
7:53 PM16 °FClear.10 mph51%30.50 "Hg10 mi
6:53 PM18 °FClear.10 mph47%30.47 "Hg10 mi
5:53 PM21 °FSunny.9 mph43%30.43 "Hg10 mi
4:53 PM23 °FScattered clouds.10 mph42%30.40 "Hg10 mi
3:53 PM24 °FOvercast.13 mph44%30.37 "Hg10 mi
2:53 PM23 °FOvercast.12 mph46%30.35 "Hg10 mi
1:53 PM23 °FOvercast.10 mph46%30.34 "Hg10 mi
12:53 PM23 °FOvercast.16 mph50%30.33 "Hg10 mi
11:53 AM22 °FOvercast.13 mph57%30.33 "Hg10 mi
10:53 AM19 °FOvercast.15 mph68%30.32 "Hg10 mi
9:53 AM18 °FLight snow. Overcast.14 mph71%30.31 "Hg3 mi
9:04 AM18 °FLight snow. Mostly cloudy.17 mph71%30.30 "Hg3 mi
8:53 AM18 °FLight snow. Cloudy.13 mph71%30.29 "Hg3 mi
Weather by CustomWeather, © 2015

See weather overviewHow to use our weather pages